Time,TemperatureF,DewpointF,PressureIn,WindDirection,WindDirectionDegrees,WindSpeedMPH,WindSpeedGustMPH,Humidity,HourlyPrecipIn,Conditions,Clouds,dailyrainin,SolarRadiationWatts/m^2,SoftwareType,DateUTC
2013-01-20 00:00:00,38.6,26.7,30.08,SW,233,10.0,12.0,62,0.00,,---,0.00,0.00,VWS V14.01,2013-01-20 06:00:00,
2013-01-20 00:04:00,38.9,26.6,30.08,ENE,76,13.0,13.0,61,0.00,,---,0.00,0.00,VWS V14.01,2013-01-20 06:04:00,
2013-01-20 00:05:00,38.9,26.6,30.08,NE,44,13.0,17.0,61,0.00,,---,0.00,0.00,VWS V14.01,2013-01-20 06:05:00,
2013-01-20 00:09:00,38.9,26.6,30.08,ENE,69,12.0,13.0,61,0.00,,---,0.00,0.00,VWS V14.01,2013-01-20 06:09:00,
2013-01-20 00:10:00,38.9,26.6,30.08,East,80,13.0,16.0,61,0.00,,---,0.00,0.00,VWS V14.01,2013-01-20 06:10:00,
2013-01-20 00:14:00,38.6,26.7,30.08,SSE,155,17.0,17.0,62,0.00,,---,0.00,0.00,VWS V14.01,2013-01-20 06:14:00,
2013-01-20 00:15:00,38.8,26.9,30.08,SE,136,13.0,16.0,62,0.00,,---,0.00,0.00,VWS V14.01,2013-01-20 06:15:00,
2013-01-20 00:19:00,38.3,26.8,30.08,ESE,104,13.0,14.0,63,0.00,,---,0.00,0.00,VWS V14.01,2013-01-20 06:19:00,
2013-01-20 00:20:00,38.5,27.0,30.08,ESE,113,11.0,17.0,63,0.00,,---,0.00,0.00,VWS V14.01,2013-01-20 06:20:00,
2013-01-20 00:25:00,38.0,26.9,30.08,NE,55,8.0,16.0,64,0.00,,---,0.00,0.00,VWS V14.01,2013-01-20 06:25:00,
2013-01-20 00:30:00,37.6,26.9,30.08,WSW,258,11.0,12.0,65,0.00,,---,0.00,0.00,VWS V14.01,2013-01-20 06:30:00,
2013-01-20 00:35:00,37.2,26.5,30.08,SE,128,12.0,13.0,65,0.00,,---,0.00,0.00,VWS V14.01,2013-01-20 06:35:00,
2013-01-20 00:40:00,36.9,26.6,30.08,NE,34,11.0,13.0,66,0.00,,---,0.00,0.00,VWS V14.01,2013-01-20 06:40:00,
2013-01-20 00:45:00,36.8,26.5,30.08,SW,234,11.0,14.0,66,0.00,,---,0.00,0.00,VWS V14.01,2013-01-20 06:45:00,
2013-01-20 00:50:00,36.3,26.4,30.08,East,93,12.0,14.0,67,0.00,,---,0.00,0.00,VWS V14.01,2013-01-20 06:50:00,
2013-01-20 00:55:00,35.9,26.4,30.08,SSW,213,10.0,14.0,68,0.00,,---,0.00,0.00,VWS V14.01,2013-01-20 06:55:00,
2013-01-20 01:00:00,35.8,26.6,30.08,NNE,13,12.0,13.0,69,0.00,,---,0.00,0.00,VWS V14.01,2013-01-20 07:00:00,
2013-01-20 01:05:00,35.8,26.6,30.08,SSE,158,10.0,12.0,69,0.00,,---,0.00,0.00,VWS V14.01,2013-01-20 07:05:00,
2013-01-20 01:10:00,35.5,26.4,30.08,ENE,75,10.0,14.0,69,0.00,,---,0.00,0.00,VWS V14.01,2013-01-20 07:10:00,
2013-01-20 01:11:00,35.3,26.5,30.08,SE,124,10.0,13.0,70,0.00,,---,0.00,0.00,VWS V14.01,2013-01-20 07:11:00,
2013-01-20 01:15:00,35.0,26.2,30.08,WSW,248,10.0,13.0,70,0.00,,---,0.00,0.00,VWS V14.01,2013-01-20 07:15:00,
2013-01-20 01:16:00,34.9,26.5,30.08,East,92,11.0,13.0,71,0.00,,---,0.00,0.00,VWS V14.01,2013-01-20 07:16:00,
2013-01-20 01:20:00,34.9,26.5,30.08,East,99,12.0,13.0,71,0.00,,---,0.00,0.00,VWS V14.01,2013-01-20 07:20:00,
2013-01-20 01:21:00,34.7,26.6,30.08,ESE,104,11.0,12.0,72,0.00,,---,0.00,0.00,VWS V14.01,2013-01-20 07:21:00,
2013-01-20 01:25:00,34.7,26.6,30.08,SSW,213,11.0,13.0,72,0.00,,---,0.00,0.00,VWS V14.01,2013-01-20 07:25:00,
2013-01-20 01:26:00,34.6,26.5,30.08,South,169,11.0,12.0,72,0.00,,---,0.00,0.00,VWS V14.01,2013-01-20 07:26:00,
2013-01-20 01:30:00,34.6,26.5,30.08,West,280,8.0,12.0,72,0.00,,---,0.00,0.00,VWS V14.01,2013-01-20 07:30:00,
2013-01-20 01:31:00,34.4,26.3,30.08,WSW,253,11.0,13.0,72,0.00,,---,0.00,0.00,VWS V14.01,2013-01-20 07:31:00,
2013-01-20 01:35:00,34.4,26.3,30.08,East,88,11.0,13.0,72,0.00,,---,0.00,0.00,VWS V14.01,2013-01-20 07:35:00,
2013-01-20 01:36:00,34.4,26.3,30.08,SSW,205,12.0,12.0,72,0.00,,---,0.00,0.00,VWS V14.01,2013-01-20 07:36:00,
2013-01-20 01:40:00,34.3,26.6,30.08,ENE,61,12.0,14.0,73,0.00,,---,0.00,0.00,VWS V14.01,2013-01-20 07:40:00,
2013-01-20 01:41:00,34.1,26.4,30.08,SSW,206,9.0,15.0,73,0.00,,---,0.00,0.00,VWS V14.01,2013-01-20 07:41:00,
2013-01-20 01:45:00,33.8,26.1,30.09,ENE,64,9.0,15.0,73,0.00,,---,0.00,0.00,VWS V14.01,2013-01-20 07:45:00,
2013-01-20 01:46:00,33.7,26.3,30.09,ESE,114,11.0,13.0,74,0.00,,---,0.00,0.00,VWS V14.01,2013-01-20 07:46:00,
2013-01-20 01:50:00,33.4,26.0,30.09,SSE,147,7.0,13.0,74,0.00,,---,0.00,0.00,VWS V14.01,2013-01-20 07:50:00,
2013-01-20 01:51:00,33.2,26.1,30.09,East,89,12.0,13.0,75,0.00,,---,0.00,0.00,VWS V14.01,2013-01-20 07:51:00,
2013-01-20 01:55:00,33.1,26.0,30.09,East,97,16.0,17.0,75,0.00,,---,0.00,0.00,VWS V14.01,2013-01-20 07:55:00,
2013-01-20 01:56:00,33.2,26.1,30.09,East,90,13.0,16.0,75,0.00,,---,0.00,0.00,VWS V14.01,2013-01-20 07:56:00,
2013-01-20 02:00:00,33.2,26.1,30.09,West,261,14.0,16.0,75,0.00,,---,0.00,0.00,VWS V14.01,2013-01-20 08:00:00,
2013-01-20 02:01:00,33.2,26.5,30.09,ESE,106,14.0,17.0,76,0.00,,---,0.00,0.00,VWS V14.01,2013-01-20 08:01:00,
2013-01-20 02:05:00,33.2,26.5,30.09,SE,130,12.0,17.0,76,0.00,,---,0.00,0.00,VWS V14.01,2013-01-20 08:05:00,
2013-01-20 02:07:00,33.1,26.4,30.09,WSW,250,12.0,16.0,76,0.00,,---,0.00,0.00,VWS V14.01,2013-01-20 08:07:00,
2013-01-20 02:10:00,32.9,26.2,30.09,NE,56,13.0,16.0,76,0.00,,---,0.00,0.00,VWS V14.01,2013-01-20 08:10:00,
2013-01-20 02:12:00,32.9,26.2,30.09,WSW,246,11.0,16.0,76,0.00,,---,0.00,0.00,VWS V14.01,2013-01-20 08:12:00,
2013-01-20 02:15:00,32.8,26.4,30.10,West,275,14.0,16.0,77,0.00,,---,0.00,0.00,VWS V14.01,2013-01-20 08:15:00,
2013-01-20 02:17:00,32.7,26.3,30.10,SW,217,13.0,18.0,77,0.00,,---,0.00,0.00,VWS V14.01,2013-01-20 08:17:00,
2013-01-20 02:20:00,32.7,26.6,30.10,West,264,16.0,18.0,78,0.00,,---,0.00,0.00,VWS V14.01,2013-01-20 08:20:00,
2013-01-20 02:22:00,32.5,26.4,30.10,NE,56,13.0,16.0,78,0.00,,---,0.00,0.00,VWS V14.01,2013-01-20 08:22:00,
2013-01-20 02:25:00,32.5,26.7,30.10,North,0,12.0,17.0,79,0.00,,---,0.00,0.00,VWS V14.01,2013-01-20 08:25:00,
2013-01-20 02:27:00,32.5,26.7,30.10,SSE,165,12.0,16.0,79,0.00,,---,0.00,0.00,VWS V14.01,2013-01-20 08:27:00,
2013-01-20 02:30:00,32.5,26.7,30.10,WSW,251,17.0,17.0,79,0.00,,---,0.00,0.00,VWS V14.01,2013-01-20 08:30:00,
2013-01-20 02:32:00,32.5,26.7,30.10,West,261,10.0,17.0,79,0.00,,---,0.00,0.00,VWS V14.01,2013-01-20 08:32:00,
2013-01-20 02:35:00,32.4,26.6,30.10,SSW,193,13.0,17.0,79,0.00,,---,0.00,0.00,VWS V14.01,2013-01-20 08:35:00,
2013-01-20 02:37:00,32.2,26.4,30.10,East,80,14.0,16.0,79,0.00,,---,0.00,0.00,VWS V14.01,2013-01-20 08:37:00,
2013-01-20 02:40:00,32.1,26.3,30.10,SE,137,14.0,16.0,79,0.00,,---,0.00,0.00,VWS V14.01,2013-01-20 08:40:00,
2013-01-20 02:42:00,31.9,26.4,30.10,SE,136,12.0,15.0,80,0.00,,---,0.00,0.00,VWS V14.01,2013-01-20 08:42:00,
2013-01-20 02:45:00,31.8,26.3,30.09,WNW,302,14.0,16.0,80,0.00,,---,0.00,0.00,VWS V14.01,2013-01-20 08:45:00,
2013-01-20 02:47:00,31.6,25.9,30.09,SSW,212,18.0,18.0,79,0.00,,---,0.00,0.00,VWS V14.01,2013-01-20 08:47:00,
2013-01-20 02:50:00,31.6,25.9,30.09,North,359,13.0,19.0,79,0.00,,---,0.00,0.00,VWS V14.01,2013-01-20 08:50:00,
2013-01-20 02:52:00,31.6,25.2,30.09,WSW,248,16.0,18.0,77,0.00,,---,0.00,0.00,VWS V14.01,2013-01-20 08:52:00,
2013-01-20 02:55:00,31.5,25.1,30.09,South,181,16.0,18.0,77,0.00,,---,0.00,0.00,VWS V14.01,2013-01-20 08:55:00,
2013-01-20 02:57:00,31.3,24.6,30.09,WSW,253,18.0,18.0,76,0.00,,---,0.00,0.00,VWS V14.01,2013-01-20 08:57:00,
2013-01-20 03:00:00,31.3,24.3,30.10,SE,137,14.0,18.0,75,0.00,,---,0.00,0.00,VWS V14.01,2013-01-20 09:00:00,
2013-01-20 03:02:00,31.3,24.0,30.10,North,357,14.0,17.0,74,0.00,,---,0.00,0.00,VWS V14.01,2013-01-20 09:02:00,
2013-01-20 03:05:00,31.3,24.0,30.10,SE,137,16.0,17.0,74,0.00,,---,0.00,0.00,VWS V14.01,2013-01-20 09:05:00,
2013-01-20 03:08:00,31.2,23.6,30.10,East,88,12.0,16.0,73,0.00,,---,0.00,0.00,VWS V14.01,2013-01-20 09:08:00,
2013-01-20 03:10:00,31.0,23.0,30.10,WSW,256,11.0,16.0,72,0.00,,---,0.00,0.00,VWS V14.01,2013-01-20 09:10:00,
2013-01-20 03:13:00,30.9,23.0,30.10,West,272,13.0,14.0,72,0.00,,---,0.00,0.00,VWS V14.01,2013-01-20 09:13:00,
2013-01-20 03:15:00,30.7,22.8,30.10,SSW,205,10.0,14.0,72,0.00,,---,0.00,0.00,VWS V14.01,2013-01-20 09:15:00,
2013-01-20 03:18:00,30.6,22.7,30.10,SE,141,11.0,13.0,72,0.00,,---,0.00,0.00,VWS V14.01,2013-01-20 09:18:00,
2013-01-20 03:20:00,30.4,22.5,30.10,SSE,160,11.0,13.0,72,0.00,,---,0.00,0.00,VWS V14.01,2013-01-20 09:20:00,
2013-01-20 03:23:00,30.1,22.2,30.10,SE,138,11.0,13.0,72,0.00,,---,0.00,0.00,VWS V14.01,2013-01-20 09:23:00,
2013-01-20 03:25:00,30.1,22.2,30.10,NW,316,10.0,13.0,72,0.00,,---,0.00,0.00,VWS V14.01,2013-01-20 09:25:00,
2013-01-20 03:28:00,29.8,21.6,30.10,SE,141,10.0,13.0,71,0.00,,---,0.00,0.00,VWS V14.01,2013-01-20 09:28:00,
2013-01-20 03:30:00,29.7,21.5,30.09,SE,134,7.0,13.0,71,0.00,,---,0.00,0.00,VWS V14.01,2013-01-20 09:30:00,
2013-01-20 03:33:00,29.4,21.5,30.09,SW,215,8.0,11.0,72,0.00,,---,0.00,0.00,VWS V14.01,2013-01-20 09:33:00,
2013-01-20 03:35:00,29.4,21.2,30.09,NNW,336,9.0,11.0,71,0.00,,---,0.00,0.00,VWS V14.01,2013-01-20 09:35:00,
2013-01-20 03:38:00,29.3,21.1,30.09,ENE,72,7.0,11.0,71,0.00,,---,0.00,0.00,VWS V14.01,2013-01-20 09:38:00,
2013-01-20 03:40:00,29.1,20.9,30.09,SW,226,7.0,11.0,71,0.00,,---,0.00,0.00,VWS V14.01,2013-01-20 09:40:00,
2013-01-20 03:44:00,29.0,20.8,30.10,ENE,72,8.0,12.0,71,0.00,,---,0.00,0.00,VWS V14.01,2013-01-20 09:44:00,
2013-01-20 03:45:00,29.0,20.8,30.10,ESE,119,10.0,12.0,71,0.00,,---,0.00,0.00,VWS V14.01,2013-01-20 09:45:00,
2013-01-20 03:49:00,28.8,20.6,30.10,ENE,75,8.0,11.0,71,0.00,,---,0.00,0.00,VWS V14.01,2013-01-20 09:49:00,
2013-01-20 03:50:00,28.8,20.6,30.10,SSE,160,6.0,11.0,71,0.00,,---,0.00,0.00,VWS V14.01,2013-01-20 09:50:00,
2013-01-20 03:54:00,28.7,20.5,30.10,SE,138,7.0,10.0,71,0.00,,---,0.00,0.00,VWS V14.01,2013-01-20 09:54:00,
2013-01-20 03:55:00,28.7,20.5,30.10,North,349,9.0,10.0,71,0.00,,---,0.00,0.00,VWS V14.01,2013-01-20 09:55:00,
2013-01-20 03:59:00,28.4,20.2,30.10,ENE,62,8.0,9.0,71,0.00,,---,0.00,0.00,VWS V14.01,2013-01-20 09:59:00,
2013-01-20 04:00:00,28.4,20.2,30.10,ENE,68,6.0,9.0,71,0.00,,---,0.00,0.00,VWS V14.01,2013-01-20 10:00:00,
2013-01-20 04:04:00,27.9,20.1,30.10,SSE,161,7.0,8.0,72,0.00,,---,0.00,0.00,VWS V14.01,2013-01-20 10:04:00,
2013-01-20 04:05:00,27.9,20.1,30.10,SW,226,8.0,8.0,72,0.00,,---,0.00,0.00,VWS V14.01,2013-01-20 10:05:00,
2013-01-20 04:09:00,27.8,20.0,30.10,WSW,254,7.0,8.0,72,0.00,,---,0.00,0.00,VWS V14.01,2013-01-20 10:09:00,
2013-01-20 04:10:00,27.8,20.0,30.10,WSW,254,7.0,8.0,72,0.00,,---,0.00,0.00,VWS V14.01,2013-01-20 10:10:00,
2013-01-20 04:14:00,27.8,20.0,30.10,ESE,120,6.0,7.0,72,0.00,,---,0.00,0.00,VWS V14.01,2013-01-20 10:14:00,
2013-01-20 04:15:00,27.8,20.0,30.10,ESE,120,6.0,7.0,72,0.00,,---,0.00,0.00,VWS V14.01,2013-01-20 10:15:00,
2013-01-20 04:19:00,27.5,19.7,30.10,WSW,246,7.0,8.0,72,0.00,,---,0.00,0.00,VWS V14.01,2013-01-20 10:19:00,
2013-01-20 04:20:00,27.5,19.7,30.10,ENE,69,7.0,8.0,72,0.00,,---,0.00,0.00,VWS V14.01,2013-01-20 10:20:00,
2013-01-20 04:24:00,27.2,19.7,30.10,SE,145,7.0,7.0,73,0.00,,---,0.00,0.00,VWS V14.01,2013-01-20 10:24:00,
2013-01-20 04:25:00,27.2,19.7,30.10,East,83,6.0,8.0,73,0.00,,---,0.00,0.00,VWS V14.01,2013-01-20 10:25:00,
2013-01-20 04:29:00,27.0,19.5,30.10,East,80,6.0,6.0,73,0.00,,---,0.00,0.00,VWS V14.01,2013-01-20 10:29:00,
2013-01-20 04:30:00,27.0,19.5,30.10,ESE,103,6.0,8.0,73,0.00,,---,0.00,0.00,VWS V14.01,2013-01-20 10:30:00,
2013-01-20 04:34:00,27.0,19.8,30.10,ENE,76,6.0,6.0,74,0.00,,---,0.00,0.00,VWS V14.01,2013-01-20 10:34:00,
2013-01-20 04:35:00,27.0,19.8,30.10,ENE,61,6.0,8.0,74,0.00,,---,0.00,0.00,VWS V14.01,2013-01-20 10:35:00,
2013-01-20 04:39:00,26.9,19.7,30.10,South,175,6.0,6.0,74,0.00,,---,0.00,0.00,VWS V14.01,2013-01-20 10:39:00,
2013-01-20 04:40:00,26.9,19.7,30.10,SSW,208,6.0,8.0,74,0.00,,---,0.00,0.00,VWS V14.01,2013-01-20 10:40:00,
2013-01-20 04:45:00,26.7,19.5,30.09,East,100,6.0,7.0,74,0.00,,---,0.00,0.00,VWS V14.01,2013-01-20 10:45:00,
2013-01-20 04:50:00,26.6,19.4,30.09,ENE,75,7.0,7.0,74,0.00,,---,0.00,0.00,VWS V14.01,2013-01-20 10:50:00,
2013-01-20 04:55:00,26.6,19.4,30.09,ENE,72,3.0,5.0,74,0.00,,---,0.00,0.00,VWS V14.01,2013-01-20 10:55:00,
2013-01-20 05:00:00,26.3,19.5,30.10,ENE,64,5.0,6.0,75,0.00,,---,0.00,0.00,VWS V14.01,2013-01-20 11:00:00,
2013-01-20 05:05:00,26.7,19.9,30.10,East,79,6.0,6.0,75,0.00,,---,0.00,0.00,VWS V14.01,2013-01-20 11:05:00,
2013-01-20 05:10:00,26.7,19.9,30.10,ENE,73,5.0,6.0,75,0.00,,---,0.00,0.00,VWS V14.01,2013-01-20 11:10:00,
2013-01-20 05:15:00,26.3,19.8,30.10,ESE,104,6.0,7.0,76,0.00,,---,0.00,0.00,VWS V14.01,2013-01-20 11:15:00,
2013-01-20 05:20:00,26.4,19.9,30.10,East,92,5.0,6.0,76,0.00,,---,0.00,0.00,VWS V14.01,2013-01-20 11:20:00,
2013-01-20 05:25:00,26.4,19.9,30.10,East,82,6.0,7.0,76,0.00,,---,0.00,0.00,VWS V14.01,2013-01-20 11:25:00,
2013-01-20 05:26:00,26.4,19.9,30.10,SW,217,5.0,7.0,76,0.00,,---,0.00,0.00,VWS V14.01,2013-01-20 11:26:00,
2013-01-20 05:30:00,26.4,19.9,30.10,ENE,75,7.0,7.0,76,0.00,,---,0.00,0.00,VWS V14.01,2013-01-20 11:30:00,
2013-01-20 05:31:00,26.4,19.9,30.10,North,0,6.0,7.0,76,0.00,,---,0.00,0.00,VWS V14.01,2013-01-20 11:31:00,
2013-01-20 05:35:00,26.4,19.9,30.10,SSE,161,6.0,8.0,76,0.00,,---,0.00,0.00,VWS V14.01,2013-01-20 11:35:00,
2013-01-20 05:36:00,26.4,19.9,30.10,SW,219,6.0,7.0,76,0.00,,---,0.00,0.00,VWS V14.01,2013-01-20 11:36:00,
2013-01-20 05:40:00,26.3,19.8,30.10,South,176,6.0,7.0,76,0.00,,---,0.00,0.00,VWS V14.01,2013-01-20 11:40:00,
2013-01-20 05:41:00,26.3,19.8,30.10,West,267,6.0,7.0,76,0.00,,---,0.00,0.00,VWS V14.01,2013-01-20 11:41:00,
2013-01-20 05:45:00,26.1,19.6,30.10,East,86,6.0,7.0,76,0.00,,---,0.00,0.00,VWS V14.01,2013-01-20 11:45:00,
2013-01-20 05:46:00,26.0,19.8,30.10,NNW,346,6.0,7.0,77,0.00,,---,0.00,0.00,VWS V14.01,2013-01-20 11:46:00,
2013-01-20 05:50:00,26.0,19.8,30.10,ESE,119,6.0,7.0,77,0.00,,---,0.00,0.00,VWS V14.01,2013-01-20 11:50:00,
2013-01-20 05:51:00,25.8,19.6,30.10,ESE,116,5.0,6.0,77,0.00,,---,0.00,0.00,VWS V14.01,2013-01-20 11:51:00,
2013-01-20 05:55:00,25.7,19.5,30.10,SE,130,5.0,6.0,77,0.00,,---,0.00,0.00,VWS V14.01,2013-01-20 11:55:00,
2013-01-20 05:57:00,25.6,19.4,30.10,ENE,76,3.0,6.0,77,0.00,,---,0.00,0.00,VWS V14.01,2013-01-20 11:57:00,
2013-01-20 06:00:00,25.6,19.4,30.10,SW,220,4.0,6.0,77,0.00,,---,0.00,0.00,VWS V14.01,2013-01-20 12:00:00,
2013-01-20 06:02:00,25.4,19.2,30.10,SSW,205,4.0,6.0,77,0.00,,---,0.00,0.00,VWS V14.01,2013-01-20 12:02:00,
2013-01-20 06:05:00,25.4,19.2,30.10,South,172,3.0,6.0,77,0.00,,---,0.00,0.00,VWS V14.01,2013-01-20 12:05:00,
2013-01-20 06:07:00,25.4,19.2,30.10,East,90,2.0,3.0,77,0.00,,---,0.00,0.00,VWS V14.01,2013-01-20 12:07:00,
2013-01-20 06:10:00,25.3,19.1,30.10,East,90,1.0,3.0,77,0.00,,---,0.00,0.00,VWS V14.01,2013-01-20 12:10:00,
2013-01-20 06:12:00,25.3,19.1,30.10,East,92,1.0,1.0,77,0.00,,---,0.00,0.00,VWS V14.01,2013-01-20 12:12:00,
2013-01-20 06:15:00,25.3,19.1,30.11,East,99,1.0,2.0,77,0.00,,---,0.00,0.00,VWS V14.01,2013-01-20 12:15:00,
2013-01-20 06:17:00,25.1,18.9,30.11,East,93,1.0,2.0,77,0.00,,---,0.00,0.00,VWS V14.01,2013-01-20 12:17:00,
2013-01-20 06:20:00,25.1,18.9,30.11,East,93,1.0,2.0,77,0.00,,---,0.00,0.00,VWS V14.01,2013-01-20 12:20:00,
2013-01-20 06:22:00,25.1,18.9,30.11,ESE,120,3.0,3.0,77,0.00,,---,0.00,0.00,VWS V14.01,2013-01-20 12:22:00,
2013-01-20 06:25:00,25.3,19.1,30.11,East,96,2.0,3.0,77,0.00,,---,0.00,0.00,VWS V14.01,2013-01-20 12:25:00,
2013-01-20 06:27:00,25.3,19.1,30.11,East,92,2.0,3.0,77,0.00,,---,0.00,0.00,VWS V14.01,2013-01-20 12:27:00,
2013-01-20 06:30:00,25.3,19.1,30.11,ESE,120,3.0,3.0,77,0.00,,---,0.00,0.00,VWS V14.01,2013-01-20 12:30:00,
2013-01-20 06:33:00,25.1,18.9,30.11,SE,130,1.0,3.0,77,0.00,,---,0.00,0.00,VWS V14.01,2013-01-20 12:33:00,
2013-01-20 06:35:00,25.1,18.9,30.11,SSE,155,1.0,3.0,77,0.00,,---,0.00,0.00,VWS V14.01,2013-01-20 12:35:00,
2013-01-20 06:38:00,25.0,18.8,30.11,SE,126,2.0,2.0,77,0.00,,---,0.00,0.00,VWS V14.01,2013-01-20 12:38:00,
2013-01-20 06:40:00,24.8,18.6,30.11,SE,141,2.0,3.0,77,0.00,,---,0.00,0.00,VWS V14.01,2013-01-20 12:40:00,
2013-01-20 06:43:00,24.7,18.8,30.11,East,82,4.0,5.0,78,0.00,,---,0.00,0.00,VWS V14.01,2013-01-20 12:43:00,
2013-01-20 06:45:00,24.5,18.6,30.11,ENE,71,5.0,5.0,78,0.00,,---,0.00,0.00,VWS V14.01,2013-01-20 12:45:00,
2013-01-20 06:48:00,24.4,18.8,30.11,ENE,73,6.0,7.0,79,0.00,,---,0.00,0.00,VWS V14.01,2013-01-20 12:48:00,
2013-01-20 06:50:00,24.4,18.5,30.11,ESE,116,7.0,7.0,78,0.00,,---,0.00,0.00,VWS V14.01,2013-01-20 12:50:00,
2013-01-20 06:53:00,24.4,18.5,30.11,ENE,62,5.0,7.0,78,0.00,,---,0.00,0.00,VWS V14.01,2013-01-20 12:53:00,
2013-01-20 06:55:00,24.4,18.5,30.11,WSW,247,5.0,7.0,78,0.00,,---,0.00,0.00,VWS V14.01,2013-01-20 12:55:00,
2013-01-20 06:58:00,24.4,18.5,30.11,North,349,7.0,7.0,78,0.00,,---,0.00,0.00,VWS V14.01,2013-01-20 12:58:00,
2013-01-20 07:00:00,24.4,18.5,30.10,SSW,202,6.0,7.0,78,0.00,,---,0.00,0.00,VWS V14.01,2013-01-20 13:00:00,
2013-01-20 07:03:00,24.2,18.3,30.10,East,93,6.0,7.0,78,0.00,,---,0.00,0.00,VWS V14.01,2013-01-20 13:03:00,
2013-01-20 07:05:00,24.2,18.3,30.10,NW,308,6.0,7.0,78,0.00,,---,0.00,0.00,VWS V14.01,2013-01-20 13:05:00,
2013-01-20 07:08:00,24.4,18.5,30.10,SSW,198,9.0,10.0,78,0.00,,---,0.00,0.00,VWS V14.01,2013-01-20 13:08:00,
2013-01-20 07:10:00,24.4,18.5,30.10,SW,215,9.0,10.0,78,0.00,,---,0.00,0.00,VWS V14.01,2013-01-20 13:10:00,
2013-01-20 07:13:00,24.2,18.0,30.09,ESE,120,10.0,10.0,77,0.00,,---,0.00,0.00,VWS V14.01,2013-01-20 13:13:00,
2013-01-20 07:15:00,24.1,18.0,30.09,ENE,68,8.0,10.0,77,0.00,,---,0.00,0.00,VWS V14.01,2013-01-20 13:15:00,
2013-01-20 07:19:00,23.8,17.7,30.09,SSW,210,10.0,11.0,77,0.00,,---,0.00,0.00,VWS V14.01,2013-01-20 13:19:00,
2013-01-20 07:20:00,23.8,17.7,30.09,SSE,162,10.0,11.0,77,0.00,,---,0.00,0.00,VWS V14.01,2013-01-20 13:20:00,
2013-01-20 07:24:00,23.5,17.7,30.09,East,86,7.0,11.0,78,0.00,,---,0.00,0.00,VWS V14.01,2013-01-20 13:24:00,
2013-01-20 07:25:00,23.5,18.0,30.09,SW,217,8.0,11.0,79,0.00,,---,0.00,0.00,VWS V14.01,2013-01-20 13:25:00,
2013-01-20 07:29:00,23.2,17.7,30.10,ESE,109,7.0,11.0,79,0.00,,---,0.00,0.00,VWS V14.01,2013-01-20 13:29:00,
2013-01-20 07:30:00,23.2,17.7,30.10,SSE,162,11.0,11.0,79,0.00,,---,0.00,0.00,VWS V14.01,2013-01-20 13:30:00,
2013-01-20 07:34:00,22.9,17.4,30.10,SSE,158,8.0,11.0,79,0.00,,---,0.00,0.00,VWS V14.01,2013-01-20 13:34:00,
2013-01-20 07:35:00,22.9,17.4,30.10,SSE,158,8.0,11.0,79,0.00,,---,0.00,0.00,VWS V14.01,2013-01-20 13:35:00,
2013-01-20 07:39:00,22.7,17.5,30.10,East,88,8.0,11.0,80,0.00,,---,0.00,0.00,VWS V14.01,2013-01-20 13:39:00,
2013-01-20 07:40:00,22.7,17.5,30.10,East,88,8.0,11.0,80,0.00,,---,0.00,0.00,VWS V14.01,2013-01-20 13:40:00,
2013-01-20 07:44:00,22.7,17.5,30.10,East,90,7.0,11.0,80,0.00,,---,0.00,0.00,VWS V14.01,2013-01-20 13:44:00,
2013-01-20 07:45:00,22.7,17.5,30.10,East,90,7.0,11.0,80,0.00,,---,0.00,0.00,VWS V14.01,2013-01-20 13:45:00,
2013-01-20 07:49:00,22.5,17.3,30.10,East,83,5.0,10.0,80,0.00,,---,0.00,5.00,VWS V14.01,2013-01-20 13:49:00,
2013-01-20 07:50:00,22.5,17.3,30.10,East,83,5.0,10.0,80,0.00,,---,0.00,5.00,VWS V14.01,2013-01-20 13:50:00,
2013-01-20 07:54:00,22.9,17.7,30.10,SE,143,6.0,10.0,80,0.00,,---,0.00,11.00,VWS V14.01,2013-01-20 13:54:00,
2013-01-20 07:55:00,22.9,17.7,30.10,SE,143,6.0,10.0,80,0.00,,---,0.00,11.00,VWS V14.01,2013-01-20 13:55:00,
2013-01-20 07:59:00,23.3,17.8,30.09,SSW,198,8.0,8.0,79,0.00,,---,0.00,18.00,VWS V14.01,2013-01-20 13:59:00,
2013-01-20 08:00:00,23.3,17.8,30.09,East,89,7.0,10.0,79,0.00,,---,0.00,18.00,VWS V14.01,2013-01-20 14:00:00,
2013-01-20 08:04:00,23.6,17.8,30.09,ENE,71,7.0,7.0,78,0.00,,---,0.00,26.00,VWS V14.01,2013-01-20 14:04:00,
2013-01-20 08:05:00,23.6,17.8,30.09,ENE,75,7.0,9.0,78,0.00,,---,0.00,26.00,VWS V14.01,2013-01-20 14:05:00,
2013-01-20 08:09:00,23.6,17.5,30.09,East,90,7.0,8.0,77,0.00,,---,0.00,33.00,VWS V14.01,2013-01-20 14:09:00,
2013-01-20 08:10:00,23.6,17.5,30.09,ESE,113,8.0,10.0,77,0.00,,---,0.00,33.00,VWS V14.01,2013-01-20 14:10:00,
2013-01-20 08:15:00,23.6,17.5,30.10,NW,315,10.0,10.0,77,0.00,,---,0.00,49.00,VWS V14.01,2013-01-20 14:15:00,
2013-01-20 08:20:00,23.6,17.2,30.10,ENE,75,8.0,8.0,76,0.00,,---,0.00,55.00,VWS V14.01,2013-01-20 14:20:00,
2013-01-20 08:25:00,23.9,17.5,30.10,SE,143,7.0,8.0,76,0.00,,---,0.00,83.00,VWS V14.01,2013-01-20 14:25:00,
2013-01-20 08:30:00,24.1,18.0,30.11,SW,233,5.0,8.0,77,0.00,,---,0.00,95.00,VWS V14.01,2013-01-20 14:30:00,
2013-01-20 08:35:00,24.5,18.3,30.11,ESE,110,8.0,11.0,77,0.00,,---,0.00,97.00,VWS V14.01,2013-01-20 14:35:00,
2013-01-20 08:40:00,24.7,18.5,30.11,South,176,8.0,9.0,77,0.00,,---,0.00,109.00,VWS V14.01,2013-01-20 14:40:00,
2013-01-20 08:45:00,24.7,18.2,30.11,ENE,61,7.0,11.0,76,0.00,,---,0.00,123.00,VWS V14.01,2013-01-20 14:45:00,
2013-01-20 08:46:00,24.8,18.6,30.11,East,86,7.0,10.0,77,0.00,,---,0.00,128.00,VWS V14.01,2013-01-20 14:46:00,
2013-01-20 08:50:00,25.0,18.5,30.11,WNW,295,7.0,12.0,76,0.00,,---,0.00,130.00,VWS V14.01,2013-01-20 14:50:00,
2013-01-20 08:51:00,25.1,18.6,30.11,North,0,7.0,10.0,76,0.00,,---,0.00,135.00,VWS V14.01,2013-01-20 14:51:00,
2013-01-20 08:55:00,25.3,18.5,30.11,West,270,8.0,13.0,75,0.00,,---,0.00,137.00,VWS V14.01,2013-01-20 14:55:00,
2013-01-20 08:56:00,25.4,18.6,30.11,SW,230,6.0,11.0,75,0.00,,---,0.00,146.00,VWS V14.01,2013-01-20 14:56:00,
2013-01-20 09:00:00,25.4,18.6,30.11,East,79,10.0,12.0,75,0.00,,---,0.00,157.00,VWS V14.01,2013-01-20 15:00:00,
2013-01-20 09:01:00,25.4,18.6,30.11,SSW,202,11.0,12.0,75,0.00,,---,0.00,162.00,VWS V14.01,2013-01-20 15:01:00,
2013-01-20 09:05:00,25.6,18.5,30.11,ESE,123,11.0,12.0,74,0.00,,---,0.00,176.00,VWS V14.01,2013-01-20 15:05:00,
2013-01-20 09:06:00,25.7,18.6,30.11,West,270,11.0,12.0,74,0.00,,---,0.00,178.00,VWS V14.01,2013-01-20 15:06:00,
2013-01-20 09:10:00,25.7,18.6,30.11,NNW,343,10.0,13.0,74,0.00,,---,0.00,187.00,VWS V14.01,2013-01-20 15:10:00,
2013-01-20 09:11:00,25.7,18.6,30.11,ENE,64,10.0,11.0,74,0.00,,---,0.00,197.00,VWS V14.01,2013-01-20 15:11:00,
2013-01-20 09:15:00,25.8,18.7,30.12,SE,133,11.0,12.0,74,0.00,,---,0.00,211.00,VWS V14.01,2013-01-20 15:15:00,
2013-01-20 09:16:00,25.8,18.7,30.12,NW,315,7.0,11.0,74,0.00,,---,0.00,215.00,VWS V14.01,2013-01-20 15:16:00,
2013-01-20 09:20:00,26.0,18.5,30.12,South,176,8.0,12.0,73,0.00,,---,0.00,223.00,VWS V14.01,2013-01-20 15:20:00,
2013-01-20 09:21:00,26.1,19.0,30.12,East,93,9.0,10.0,74,0.00,,---,0.00,227.00,VWS V14.01,2013-01-20 15:21:00,
2013-01-20 09:25:00,26.1,18.6,30.12,East,90,7.0,10.0,73,0.00,,---,0.00,230.00,VWS V14.01,2013-01-20 15:25:00,
2013-01-20 09:26:00,26.4,19.2,30.12,ESE,104,7.0,8.0,74,0.00,,---,0.00,241.00,VWS V14.01,2013-01-20 15:26:00,
2013-01-20 09:30:00,26.6,19.1,30.12,East,90,8.0,10.0,73,0.00,,---,0.00,246.00,VWS V14.01,2013-01-20 15:30:00,
2013-01-20 09:31:00,26.7,18.9,30.12,ENE,78,5.0,12.0,72,0.00,,---,0.00,248.00,VWS V14.01,2013-01-20 15:31:00,
2013-01-20 09:35:00,27.0,19.2,30.12,East,100,7.0,12.0,72,0.00,,---,0.00,223.00,VWS V14.01,2013-01-20 15:35:00,
2013-01-20 09:37:00,27.2,19.4,30.12,SSE,157,7.0,8.0,72,0.00,,---,0.00,239.00,VWS V14.01,2013-01-20 15:37:00,
2013-01-20 09:40:00,27.3,19.1,30.12,ESE,110,5.0,10.0,71,0.00,,---,0.00,274.00,VWS V14.01,2013-01-20 15:40:00,
2013-01-20 09:42:00,27.6,19.1,30.12,East,86,5.0,11.0,70,0.00,,---,0.00,278.00,VWS V14.01,2013-01-20 15:42:00,
2013-01-20 09:45:00,27.8,19.0,30.12,ESE,103,8.0,11.0,69,0.00,,---,0.00,283.00,VWS V14.01,2013-01-20 15:45:00,
2013-01-20 09:47:00,27.8,19.0,30.12,SSW,195,8.0,12.0,69,0.00,,---,0.00,285.00,VWS V14.01,2013-01-20 15:47:00,
2013-01-20 09:50:00,27.8,19.0,30.12,East,93,6.0,12.0,69,0.00,,---,0.00,282.00,VWS V14.01,2013-01-20 15:50:00,
2013-01-20 09:52:00,28.1,18.9,30.12,East,90,7.0,8.0,68,0.00,,---,0.00,304.00,VWS V14.01,2013-01-20 15:52:00,
2013-01-20 09:55:00,28.1,18.6,30.12,South,175,8.0,10.0,67,0.00,,---,0.00,285.00,VWS V14.01,2013-01-20 15:55:00,
2013-01-20 09:57:00,28.4,18.5,30.12,East,82,8.0,10.0,66,0.00,,---,0.00,294.00,VWS V14.01,2013-01-20 15:57:00,
2013-01-20 10:00:00,28.5,18.2,30.12,ENE,69,10.0,11.0,65,0.00,,---,0.00,313.00,VWS V14.01,2013-01-20 16:00:00,
2013-01-20 10:02:00,28.5,18.2,30.12,SSE,160,8.0,10.0,65,0.00,,---,0.00,324.00,VWS V14.01,2013-01-20 16:02:00,
2013-01-20 10:05:00,28.7,18.1,30.12,East,83,5.0,11.0,64,0.00,,---,0.00,250.00,VWS V14.01,2013-01-20 16:05:00,
2013-01-20 10:07:00,28.8,17.8,30.12,East,79,8.0,10.0,63,0.00,,---,0.00,333.00,VWS V14.01,2013-01-20 16:07:00,
2013-01-20 10:10:00,29.0,18.0,30.12,ESE,112,6.0,10.0,63,0.00,,---,0.00,340.00,VWS V14.01,2013-01-20 16:10:00,
2013-01-20 10:12:00,29.1,17.7,30.12,ENE,62,5.0,9.0,62,0.00,,---,0.00,348.00,VWS V14.01,2013-01-20 16:12:00,
2013-01-20 10:15:00,29.1,18.1,30.15,ENE,72,10.0,10.0,63,0.00,,---,0.00,350.00,VWS V14.01,2013-01-20 16:15:00,
2013-01-20 10:17:00,29.3,17.5,30.15,SSE,165,7.0,12.0,61,0.00,,---,0.00,359.00,VWS V14.01,2013-01-20 16:17:00,
2013-01-20 10:20:00,29.4,17.2,30.15,East,99,5.0,12.0,60,0.00,,---,0.00,364.00,VWS V14.01,2013-01-20 16:20:00,
2013-01-20 10:22:00,29.8,17.6,30.15,East,95,5.0,9.0,60,0.00,,---,0.00,371.00,VWS V14.01,2013-01-20 16:22:00,
2013-01-20 10:25:00,30.1,17.9,30.15,ESE,104,8.0,9.0,60,0.00,,---,0.00,373.00,VWS V14.01,2013-01-20 16:25:00,
2013-01-20 10:27:00,30.3,17.3,30.15,ESE,102,7.0,8.0,58,0.00,,---,0.00,370.00,VWS V14.01,2013-01-20 16:27:00,
2013-01-20 10:30:00,30.4,17.4,30.14,East,83,8.0,8.0,58,0.00,,---,0.00,378.00,VWS V14.01,2013-01-20 16:30:00,
2013-01-20 10:33:00,30.6,17.6,30.14,East,79,3.0,10.0,58,0.00,,---,0.00,385.00,VWS V14.01,2013-01-20 16:33:00,
2013-01-20 10:35:00,30.6,17.6,30.14,East,99,5.0,10.0,58,0.00,,---,0.00,382.00,VWS V14.01,2013-01-20 16:35:00,
2013-01-20 10:38:00,30.7,17.7,30.14,East,92,8.0,11.0,58,0.00,,---,0.00,392.00,VWS V14.01,2013-01-20 16:38:00,
2013-01-20 10:40:00,30.7,17.3,30.14,ENE,78,5.0,11.0,57,0.00,,---,0.00,398.00,VWS V14.01,2013-01-20 16:40:00,
2013-01-20 10:43:00,30.9,17.9,30.14,East,93,6.0,6.0,58,0.00,,---,0.00,412.00,VWS V14.01,2013-01-20 16:43:00,
2013-01-20 10:45:00,31.0,18.0,30.14,ENE,72,6.0,8.0,58,0.00,,---,0.00,410.00,VWS V14.01,2013-01-20 16:45:00,
2013-01-20 10:48:00,31.3,18.2,30.14,ENE,73,5.0,7.0,58,0.00,,---,0.00,443.00,VWS V14.01,2013-01-20 16:48:00,
2013-01-20 10:50:00,31.5,18.4,30.14,ESE,123,7.0,7.0,58,0.00,,---,0.00,429.00,VWS V14.01,2013-01-20 16:50:00,
2013-01-20 10:53:00,31.6,17.7,30.14,East,82,2.0,7.0,56,0.00,,---,0.00,477.00,VWS V14.01,2013-01-20 16:53:00,
2013-01-20 10:55:00,31.8,17.9,30.14,East,95,7.0,7.0,56,0.00,,---,0.00,470.00,VWS V14.01,2013-01-20 16:55:00,
2013-01-20 10:58:00,32.1,17.3,30.14,East,96,7.0,8.0,54,0.00,,---,0.00,484.00,VWS V14.01,2013-01-20 16:58:00,
2013-01-20 11:00:00,32.2,17.4,30.14,ENE,78,7.0,8.0,54,0.00,,---,0.00,487.00,VWS V14.01,2013-01-20 17:00:00,
2013-01-20 11:03:00,32.5,17.7,30.14,ENE,72,2.0,8.0,54,0.00,,---,0.00,489.00,VWS V14.01,2013-01-20 17:03:00,
2013-01-20 11:05:00,32.5,17.7,30.14,ENE,76,6.0,8.0,54,0.00,,---,0.00,493.00,VWS V14.01,2013-01-20 17:05:00,
2013-01-20 11:08:00,33.4,17.2,30.14,SSE,162,8.0,8.0,51,0.00,,---,0.00,482.00,VWS V14.01,2013-01-20 17:08:00,
2013-01-20 11:10:00,33.5,17.3,30.14,East,93,5.0,8.0,51,0.00,,---,0.00,489.00,VWS V14.01,2013-01-20 17:10:00,
2013-01-20 11:13:00,34.0,16.9,30.15,NE,55,6.0,8.0,49,0.00,,---,0.00,470.00,VWS V14.01,2013-01-20 17:13:00,
2013-01-20 11:15:00,33.8,16.2,30.15,NE,56,2.0,8.0,48,0.00,,---,0.00,408.00,VWS V14.01,2013-01-20 17:15:00,
2013-01-20 11:18:00,33.7,16.6,30.15,NE,44,3.0,7.0,49,0.00,,---,0.00,394.00,VWS V14.01,2013-01-20 17:18:00,
2013-01-20 11:20:00,33.7,16.6,30.15,NE,41,4.0,7.0,49,0.00,,---,0.00,394.00,VWS V14.01,2013-01-20 17:20:00,
2013-01-20 11:23:00,34.0,16.4,30.15,ESE,110,7.0,8.0,48,0.00,,---,0.00,465.00,VWS V14.01,2013-01-20 17:23:00,
2013-01-20 11:25:00,34.1,16.5,30.15,ENE,69,5.0,8.0,48,0.00,,---,0.00,447.00,VWS V14.01,2013-01-20 17:25:00,
2013-01-20 11:28:00,34.6,16.9,30.14,East,86,4.0,6.0,48,0.00,,---,0.00,540.00,VWS V14.01,2013-01-20 17:28:00,
2013-01-20 11:30:00,34.6,16.9,30.14,East,82,2.0,6.0,48,0.00,,---,0.00,540.00,VWS V14.01,2013-01-20 17:30:00,
2013-01-20 11:34:00,35.0,16.8,30.14,NE,55,0.0,4.0,47,0.00,,---,0.00,472.00,VWS V14.01,2013-01-20 17:34:00,
2013-01-20 11:35:00,35.0,16.8,30.14,ENE,58,2.0,4.0,47,0.00,,---,0.00,452.00,VWS V14.01,2013-01-20 17:35:00,
2013-01-20 11:39:00,35.2,16.5,30.14,East,99,6.0,7.0,46,0.00,,---,0.00,255.00,VWS V14.01,2013-01-20 17:39:00,
2013-01-20 11:40:00,35.2,16.5,30.14,ESE,107,6.0,7.0,46,0.00,,---,0.00,218.00,VWS V14.01,2013-01-20 17:40:00,
2013-01-20 11:44:00,35.2,17.0,30.14,NE,52,5.0,7.0,47,0.00,,---,0.00,192.00,VWS V14.01,2013-01-20 17:44:00,
2013-01-20 11:45:00,35.2,17.0,30.14,NE,55,6.0,7.0,47,0.00,,---,0.00,190.00,VWS V14.01,2013-01-20 17:45:00,
2013-01-20 11:49:00,35.2,17.0,30.14,SE,131,2.0,6.0,47,0.00,,---,0.00,194.00,VWS V14.01,2013-01-20 17:49:00,
2013-01-20 11:50:00,35.2,17.0,30.14,SE,131,2.0,6.0,47,0.00,,---,0.00,194.00,VWS V14.01,2013-01-20 17:50:00,
2013-01-20 11:54:00,35.8,17.1,30.14,ESE,110,8.0,10.0,46,0.00,,---,0.00,174.00,VWS V14.01,2013-01-20 17:54:00,
2013-01-20 11:55:00,35.8,17.1,30.14,ESE,110,8.0,10.0,46,0.00,,---,0.00,174.00,VWS V14.01,2013-01-20 17:55:00,
2013-01-20 11:59:00,35.9,17.1,30.12,East,82,6.0,10.0,46,0.00,,---,0.00,176.00,VWS V14.01,2013-01-20 17:59:00,
2013-01-20 12:00:00,35.9,17.1,30.12,East,82,6.0,10.0,46,0.00,,---,0.00,176.00,VWS V14.01,2013-01-20 18:00:00,
2013-01-20 12:04:00,36.2,16.9,30.12,ENE,58,4.0,4.0,45,0.00,,---,0.00,530.00,VWS V14.01,2013-01-20 18:04:00,
2013-01-20 12:05:00,36.2,16.9,30.12,ENE,58,2.0,9.0,45,0.00,,---,0.00,530.00,VWS V14.01,2013-01-20 18:05:00,
2013-01-20 12:09:00,36.0,17.2,30.12,ESE,121,7.0,8.0,46,0.00,,---,0.00,132.00,VWS V14.01,2013-01-20 18:09:00,
2013-01-20 12:10:00,36.0,17.2,30.12,East,99,8.0,8.0,46,0.00,,---,0.00,132.00,VWS V14.01,2013-01-20 18:10:00,
2013-01-20 12:14:00,36.5,17.7,30.11,ENE,73,4.0,4.0,46,0.00,,---,0.00,403.00,VWS V14.01,2013-01-20 18:14:00,
2013-01-20 12:15:00,36.5,17.7,30.11,ENE,76,3.0,8.0,46,0.00,,---,0.00,403.00,VWS V14.01,2013-01-20 18:15:00,
2013-01-20 12:19:00,36.5,17.7,30.11,ENE,62,7.0,8.0,46,0.00,,---,0.00,297.00,VWS V14.01,2013-01-20 18:19:00,
2013-01-20 12:20:00,36.6,17.8,30.11,ENE,76,7.0,9.0,46,0.00,,---,0.00,297.00,VWS V14.01,2013-01-20 18:20:00,
2013-01-20 12:24:00,36.5,17.7,30.11,East,82,4.0,6.0,46,0.00,,---,0.00,167.00,VWS V14.01,2013-01-20 18:24:00,
2013-01-20 12:25:00,36.5,17.7,30.11,East,85,6.0,8.0,46,0.00,,---,0.00,167.00,VWS V14.01,2013-01-20 18:25:00,
2013-01-20 12:30:00,36.8,18.0,30.10,ENE,69,3.0,6.0,46,0.00,,---,0.00,150.00,VWS V14.01,2013-01-20 18:30:00,
2013-01-20 12:35:00,36.6,17.8,30.10,ENE,58,3.0,3.0,46,0.00,,---,0.00,171.00,VWS V14.01,2013-01-20 18:35:00,
2013-01-20 12:40:00,36.9,18.6,30.10,East,92,6.0,10.0,47,0.00,,---,0.00,208.00,VWS V14.01,2013-01-20 18:40:00,
2013-01-20 12:45:00,37.3,18.4,30.09,East,85,3.0,3.0,46,0.00,,---,0.00,232.00,VWS V14.01,2013-01-20 18:45:00,
2013-01-20 12:50:00,37.6,18.2,30.09,NNE,31,8.0,10.0,45,0.00,,---,0.00,255.00,VWS V14.01,2013-01-20 18:50:00,
2013-01-20 12:55:00,37.6,18.7,30.09,NE,56,5.0,7.0,46,0.00,,---,0.00,422.00,VWS V14.01,2013-01-20 18:55:00,
2013-01-20 13:00:00,37.8,18.4,30.08,ENE,73,7.0,10.0,45,0.00,,---,0.00,301.00,VWS V14.01,2013-01-20 19:00:00,
2013-01-20 13:05:00,37.9,18.5,30.08,ENE,58,5.0,11.0,45,0.00,,---,0.00,285.00,VWS V14.01,2013-01-20 19:05:00,
2013-01-20 13:10:00,37.9,18.5,30.08,ESE,112,10.0,10.0,45,0.00,,---,0.00,318.00,VWS V14.01,2013-01-20 19:10:00,
2013-01-20 13:15:00,37.9,18.0,30.09,NNE,23,10.0,16.0,44,0.00,,---,0.00,486.00,VWS V14.01,2013-01-20 19:15:00,
2013-01-20 13:20:00,38.2,17.7,30.09,East,99,6.0,14.0,43,0.00,,---,0.00,375.00,VWS V14.01,2013-01-20 19:20:00,
2013-01-20 13:25:00,37.9,17.4,30.09,East,97,13.0,14.0,43,0.00,,---,0.00,324.00,VWS V14.01,2013-01-20 19:25:00,
2013-01-20 13:30:00,37.6,17.1,30.10,ESE,119,12.0,17.0,43,0.00,,---,0.00,375.00,VWS V14.01,2013-01-20 19:30:00,
2013-01-20 13:31:00,37.5,17.6,30.10,WNW,289,16.0,18.0,44,0.00,,---,0.00,401.00,VWS V14.01,2013-01-20 19:31:00,
2013-01-20 13:35:00,36.9,17.0,30.10,NE,48,14.0,18.0,44,0.00,,---,0.00,326.00,VWS V14.01,2013-01-20 19:35:00,
2013-01-20 13:36:00,36.9,17.0,30.10,North,0,11.0,14.0,44,0.00,,---,0.00,294.00,VWS V14.01,2013-01-20 19:36:00,
2013-01-20 13:40:00,36.6,16.8,30.10,South,175,14.0,17.0,44,0.00,,---,0.00,274.00,VWS V14.01,2013-01-20 19:40:00,
2013-01-20 13:41:00,36.3,16.5,30.10,NNW,346,13.0,18.0,44,0.00,,---,0.00,271.00,VWS V14.01,2013-01-20 19:41:00,
2013-01-20 13:45:00,35.8,16.0,30.11,North,353,13.0,18.0,44,0.00,,---,0.00,267.00,VWS V14.01,2013-01-20 19:45:00,
2013-01-20 13:46:00,35.5,16.3,30.11,East,83,12.0,16.0,45,0.00,,---,0.00,271.00,VWS V14.01,2013-01-20 19:46:00,
2013-01-20 13:50:00,35.6,16.4,30.11,NE,44,7.0,16.0,45,0.00,,---,0.00,282.00,VWS V14.01,2013-01-20 19:50:00,
2013-01-20 13:51:00,35.5,16.3,30.11,SW,230,14.0,14.0,45,0.00,,---,0.00,315.00,VWS V14.01,2013-01-20 19:51:00,
2013-01-20 13:55:00,35.3,15.6,30.11,North,357,16.0,16.0,44,0.00,,---,0.00,280.00,VWS V14.01,2013-01-20 19:55:00,
2013-01-20 13:56:00,35.2,16.0,30.11,ENE,68,12.0,17.0,45,0.00,,---,0.00,348.00,VWS V14.01,2013-01-20 19:56:00,
2013-01-20 14:00:00,35.0,15.3,30.10,SSW,199,12.0,17.0,44,0.00,,---,0.00,255.00,VWS V14.01,2013-01-20 20:00:00,
2013-01-20 14:01:00,34.7,15.0,30.10,NNE,24,12.0,13.0,44,0.00,,---,0.00,253.00,VWS V14.01,2013-01-20 20:01:00,
2013-01-20 14:05:00,35.2,15.0,30.10,SW,223,10.0,13.0,43,0.00,,---,0.00,250.00,VWS V14.01,2013-01-20 20:05:00,
2013-01-20 14:06:00,35.2,15.0,30.10,SE,133,12.0,13.0,43,0.00,,---,0.00,222.00,VWS V14.01,2013-01-20 20:06:00,
2013-01-20 14:10:00,35.2,15.0,30.10,SE,144,7.0,15.0,43,0.00,,---,0.00,211.00,VWS V14.01,2013-01-20 20:10:00,
2013-01-20 14:11:00,35.3,15.1,30.10,SSE,158,7.0,14.0,43,0.00,,---,0.00,220.00,VWS V14.01,2013-01-20 20:11:00,
2013-01-20 14:15:00,35.5,14.7,30.10,West,267,14.0,14.0,42,0.00,,---,0.00,238.00,VWS V14.01,2013-01-20 20:15:00,
2013-01-20 14:17:00,35.3,15.1,30.10,SSE,158,9.0,14.0,43,0.00,,---,0.00,243.00,VWS V14.01,2013-01-20 20:17:00,
2013-01-20 14:20:00,35.3,14.5,30.10,NW,315,13.0,16.0,42,0.00,,---,0.00,234.00,VWS V14.01,2013-01-20 20:20:00,
2013-01-20 14:22:00,35.3,14.5,30.10,East,96,8.0,16.0,42,0.00,,---,0.00,229.00,VWS V14.01,2013-01-20 20:22:00,
2013-01-20 14:25:00,35.3,14.0,30.10,NE,44,8.0,16.0,41,0.00,,---,0.00,236.00,VWS V14.01,2013-01-20 20:25:00,
2013-01-20 14:27:00,35.5,14.1,30.10,SW,226,12.0,16.0,41,0.00,,---,0.00,229.00,VWS V14.01,2013-01-20 20:27:00,
2013-01-20 14:30:00,35.3,14.0,30.11,NW,311,12.0,16.0,41,0.00,,---,0.00,216.00,VWS V14.01,2013-01-20 20:30:00,
2013-01-20 14:32:00,35.3,14.0,30.11,East,85,12.0,13.0,41,0.00,,---,0.00,208.00,VWS V14.01,2013-01-20 20:32:00,
2013-01-20 14:35:00,35.3,14.0,30.11,North,0,12.0,16.0,41,0.00,,---,0.00,206.00,VWS V14.01,2013-01-20 20:35:00,
2013-01-20 14:37:00,35.3,14.0,30.11,North,0,12.0,13.0,41,0.00,,---,0.00,204.00,VWS V14.01,2013-01-20 20:37:00,
2013-01-20 14:40:00,35.2,13.9,30.11,NE,47,14.0,16.0,41,0.00,,---,0.00,218.00,VWS V14.01,2013-01-20 20:40:00,
2013-01-20 14:42:00,35.2,13.9,30.11,ESE,110,14.0,18.0,41,0.00,,---,0.00,194.00,VWS V14.01,2013-01-20 20:42:00,
2013-01-20 14:45:00,35.2,13.3,30.11,NW,319,15.0,18.0,40,0.00,,---,0.00,190.00,VWS V14.01,2013-01-20 20:45:00,
2013-01-20 14:47:00,35.0,13.1,30.11,NNE,32,14.0,18.0,40,0.00,,---,0.00,192.00,VWS V14.01,2013-01-20 20:47:00,
2013-01-20 14:50:00,35.0,12.6,30.11,ESE,121,7.0,18.0,39,0.00,,---,0.00,187.00,VWS V14.01,2013-01-20 20:50:00,
2013-01-20 14:55:00,35.0,13.1,30.11,North,0,11.0,14.0,40,0.00,,---,0.00,178.00,VWS V14.01,2013-01-20 20:55:00,
2013-01-20 15:00:00,35.0,13.1,30.12,NNE,22,13.0,17.0,40,0.00,,---,0.00,172.00,VWS V14.01,2013-01-20 21:00:00,
2013-01-20 15:05:00,34.7,12.9,30.12,North,0,12.0,16.0,40,0.00,,---,0.00,168.00,VWS V14.01,2013-01-20 21:05:00,
2013-01-20 15:10:00,34.7,12.3,30.12,North,0,10.0,18.0,39,0.00,,---,0.00,165.00,VWS V14.01,2013-01-20 21:10:00,
2013-01-20 15:15:00,34.3,12.5,30.13,North,0,11.0,17.0,40,0.00,,---,0.00,161.00,VWS V14.01,2013-01-20 21:15:00,
2013-01-20 15:20:00,33.8,11.5,30.13,North,0,16.0,19.0,39,0.00,,---,0.00,163.00,VWS V14.01,2013-01-20 21:20:00,
2013-01-20 15:25:00,33.7,12.0,30.13,North,0,14.0,19.0,40,0.00,,---,0.00,155.00,VWS V14.01,2013-01-20 21:25:00,
2013-01-20 15:30:00,33.4,11.1,30.14,North,0,14.0,19.0,39,0.00,,---,0.00,155.00,VWS V14.01,2013-01-20 21:30:00,
2013-01-20 15:35:00,33.4,11.1,30.14,WSW,248,15.0,19.0,39,0.00,,---,0.00,153.00,VWS V14.01,2013-01-20 21:35:00,
2013-01-20 15:40:00,33.5,11.2,30.14,North,0,11.0,18.0,39,0.00,,---,0.00,150.00,VWS V14.01,2013-01-20 21:40:00,
2013-01-20 15:45:00,33.2,12.1,30.14,North,0,16.0,19.0,41,0.00,,---,0.00,138.00,VWS V14.01,2013-01-20 21:45:00,
2013-01-20 15:50:00,32.9,12.3,30.14,North,0,14.0,19.0,42,0.00,,---,0.00,128.00,VWS V14.01,2013-01-20 21:50:00,
2013-01-20 15:55:00,32.4,11.9,30.14,North,0,16.0,19.0,42,0.00,,---,0.00,111.00,VWS V14.01,2013-01-20 21:55:00,
2013-01-20 16:00:00,31.9,12.0,30.15,North,0,16.0,19.0,43,0.00,,---,0.00,104.00,VWS V14.01,2013-01-20 22:00:00,
2013-01-20 16:05:00,31.8,12.4,30.15,North,0,14.0,18.0,44,0.00,,---,0.00,102.00,VWS V14.01,2013-01-20 22:05:00,
2013-01-20 16:10:00,31.5,13.1,30.15,North,0,13.0,18.0,46,0.00,,---,0.00,93.00,VWS V14.01,2013-01-20 22:10:00,
2013-01-20 16:15:00,31.3,12.9,30.16,NW,315,11.0,17.0,46,0.00,,---,0.00,86.00,VWS V14.01,2013-01-20 22:15:00,
2013-01-20 16:20:00,30.7,12.4,30.16,North,0,15.0,19.0,46,0.00,,---,0.00,83.00,VWS V14.01,2013-01-20 22:20:00,
2013-01-20 16:25:00,30.4,12.6,30.16,North,0,15.0,19.0,47,0.00,,---,0.00,79.00,VWS V14.01,2013-01-20 22:25:00,
2013-01-20 16:30:00,30.1,12.8,30.16,North,0,14.0,19.0,48,0.00,,---,0.00,73.00,VWS V14.01,2013-01-20 22:30:00,
2013-01-20 16:34:00,30.1,12.8,30.16,North,0,14.0,19.0,48,0.00,,---,0.00,73.00,VWS V14.01,2013-01-20 22:34:00,
2013-01-20 16:35:00,30.0,12.7,30.16,WNW,298,10.0,14.0,48,0.00,,---,0.00,69.00,VWS V14.01,2013-01-20 22:35:00,
2013-01-20 16:40:00,30.0,12.7,30.16,NW,312,8.0,11.0,48,0.00,,---,0.00,63.00,VWS V14.01,2013-01-20 22:40:00,
2013-01-20 16:45:00,30.0,12.2,30.17,NNW,340,12.0,14.0,47,0.00,,---,0.00,58.00,VWS V14.01,2013-01-20 22:45:00,
2013-01-20 16:50:00,29.8,12.0,30.17,NW,316,11.0,13.0,47,0.00,,---,0.00,55.00,VWS V14.01,2013-01-20 22:50:00,
2013-01-20 16:55:00,29.8,12.5,30.17,West,275,10.0,13.0,48,0.00,,---,0.00,49.00,VWS V14.01,2013-01-20 22:55:00,
2013-01-20 17:00:00,29.8,12.5,30.17,North,0,11.0,11.0,48,0.00,,---,0.00,44.00,VWS V14.01,2013-01-20 23:00:00,
2013-01-20 17:05:00,29.8,12.5,30.17,North,0,10.0,11.0,48,0.00,,---,0.00,35.00,VWS V14.01,2013-01-20 23:05:00,
2013-01-20 17:10:00,29.7,12.9,30.17,North,0,6.0,11.0,49,0.00,,---,0.00,28.00,VWS V14.01,2013-01-20 23:10:00,
2013-01-20 17:15:00,29.5,12.7,30.17,East,79,10.0,13.0,49,0.00,,---,0.00,21.00,VWS V14.01,2013-01-20 23:15:00,
2013-01-20 17:20:00,29.5,12.7,30.17,NE,42,12.0,12.0,49,0.00,,---,0.00,18.00,VWS V14.01,2013-01-20 23:20:00,
2013-01-20 17:25:00,29.5,13.2,30.17,NNE,25,8.0,13.0,50,0.00,,---,0.00,9.00,VWS V14.01,2013-01-20 23:25:00,
2013-01-20 17:30:00,29.5,13.2,30.18,NNE,31,7.0,13.0,50,0.00,,---,0.00,5.00,VWS V14.01,2013-01-20 23:30:00,
2013-01-20 17:35:00,29.5,13.2,30.18,North,6,19.0,20.0,50,0.00,,---,0.00,0.00,VWS V14.01,2013-01-20 23:35:00,
2013-01-20 17:40:00,29.1,13.2,30.18,North,0,16.0,18.0,51,0.00,,---,0.00,0.00,VWS V14.01,2013-01-20 23:40:00,
2013-01-20 17:45:00,28.7,13.3,30.19,NNW,335,13.0,18.0,52,0.00,,---,0.00,0.00,VWS V14.01,2013-01-20 23:45:00,
2013-01-20 17:50:00,28.4,13.0,30.19,NNW,346,17.0,18.0,52,0.00,,---,0.00,0.00,VWS V14.01,2013-01-20 23:50:00,
2013-01-20 17:55:00,28.1,13.2,30.19,East,80,8.0,17.0,53,0.00,,---,0.00,0.00,VWS V14.01,2013-01-20 23:55:00,
2013-01-20 18:00:00,27.9,13.0,30.20,SE,133,12.0,17.0,53,0.00,,---,0.00,0.00,VWS V14.01,2013-01-21 00:00:00,
2013-01-20 18:01:00,27.8,12.9,30.20,NNW,340,15.0,16.0,53,0.00,,---,0.00,0.00,VWS V14.01,2013-01-21 00:01:00,
2013-01-20 18:05:00,27.8,13.3,30.20,North,0,10.0,16.0,54,0.00,,---,0.00,0.00,VWS V14.01,2013-01-21 00:05:00,
2013-01-20 18:06:00,27.6,13.1,30.20,NNE,17,6.0,10.0,54,0.00,,---,0.00,0.00,VWS V14.01,2013-01-21 00:06:00,
2013-01-20 18:10:00,27.5,13.1,30.20,North,0,9.0,13.0,54,0.00,,---,0.00,0.00,VWS V14.01,2013-01-21 00:10:00,
2013-01-20 18:11:00,27.5,13.1,30.20,WNW,291,11.0,13.0,54,0.00,,---,0.00,0.00,VWS V14.01,2013-01-21 00:11:00,
2013-01-20 18:15:00,27.3,13.3,30.21,NE,41,8.0,13.0,55,0.00,,---,0.00,0.00,VWS V14.01,2013-01-21 00:15:00,
2013-01-20 18:16:00,27.3,13.3,30.21,NNW,337,8.0,12.0,55,0.00,,---,0.00,0.00,VWS V14.01,2013-01-21 00:16:00,
2013-01-20 18:20:00,27.2,13.2,30.21,NNE,25,12.0,12.0,55,0.00,,---,0.00,0.00,VWS V14.01,2013-01-21 00:20:00,
2013-01-20 18:21:00,27.2,13.2,30.21,East,86,10.0,12.0,55,0.00,,---,0.00,0.00,VWS V14.01,2013-01-21 00:21:00,
2013-01-20 18:25:00,27.0,13.0,30.21,North,0,10.0,13.0,55,0.00,,---,0.00,0.00,VWS V14.01,2013-01-21 00:25:00,
2013-01-20 18:27:00,27.0,13.4,30.21,NE,38,7.0,13.0,56,0.00,,---,0.00,0.00,VWS V14.01,2013-01-21 00:27:00,
2013-01-20 18:30:00,27.0,13.4,30.22,North,354,7.0,13.0,56,0.00,,---,0.00,0.00,VWS V14.01,2013-01-21 00:30:00,
2013-01-20 18:32:00,27.0,13.4,30.22,WNW,284,10.0,13.0,56,0.00,,---,0.00,0.00,VWS V14.01,2013-01-21 00:32:00,
2013-01-20 18:35:00,26.9,13.3,30.22,North,0,5.0,13.0,56,0.00,,---,0.00,0.00,VWS V14.01,2013-01-21 00:35:00,
2013-01-20 18:37:00,26.9,13.7,30.22,WSW,257,7.0,11.0,57,0.00,,---,0.00,0.00,VWS V14.01,2013-01-21 00:37:00,
2013-01-20 18:40:00,26.9,13.7,30.22,NW,316,11.0,12.0,57,0.00,,---,0.00,0.00,VWS V14.01,2013-01-21 00:40:00,
2013-01-20 18:42:00,26.9,13.7,30.22,NE,48,11.0,12.0,57,0.00,,---,0.00,0.00,VWS V14.01,2013-01-21 00:42:00,
2013-01-20 18:45:00,26.9,13.7,30.22,North,0,9.0,13.0,57,0.00,,---,0.00,0.00,VWS V14.01,2013-01-21 00:45:00,
2013-01-20 18:47:00,26.9,13.7,30.22,NW,308,11.0,13.0,57,0.00,,---,0.00,0.00,VWS V14.01,2013-01-21 00:47:00,
2013-01-20 18:50:00,26.7,13.5,30.22,NE,48,10.0,13.0,57,0.00,,---,0.00,0.00,VWS V14.01,2013-01-21 00:50:00,
2013-01-20 18:52:00,26.7,13.5,30.22,NW,323,11.0,16.0,57,0.00,,---,0.00,0.00,VWS V14.01,2013-01-21 00:52:00,
2013-01-20 18:55:00,26.7,13.5,30.22,SW,227,12.0,16.0,57,0.00,,---,0.00,0.00,VWS V14.01,2013-01-21 00:55:00,
2013-01-20 18:57:00,26.7,13.5,30.22,NW,305,6.0,16.0,57,0.00,,---,0.00,0.00,VWS V14.01,2013-01-21 00:57:00,
2013-01-20 19:00:00,26.7,13.5,30.23,West,265,9.0,16.0,57,0.00,,---,0.00,0.00,VWS V14.01,2013-01-21 01:00:00,
2013-01-20 19:02:00,26.6,13.4,30.23,SW,222,8.0,14.0,57,0.00,,---,0.00,0.00,VWS V14.01,2013-01-21 01:02:00,
2013-01-20 19:05:00,26.6,13.4,30.23,NNW,346,11.0,17.0,57,0.00,,---,0.00,0.00,VWS V14.01,2013-01-21 01:05:00,
2013-01-20 19:07:00,26.4,13.2,30.23,NNW,328,12.0,14.0,57,0.00,,---,0.00,0.00,VWS V14.01,2013-01-21 01:07:00,
2013-01-20 19:10:00,26.4,13.2,30.23,North,353,9.0,14.0,57,0.00,,---,0.00,0.00,VWS V14.01,2013-01-21 01:10:00,
2013-01-20 19:12:00,26.4,13.2,30.23,North,353,11.0,16.0,57,0.00,,---,0.00,0.00,VWS V14.01,2013-01-21 01:12:00,
2013-01-20 19:15:00,26.4,13.2,30.24,North,349,16.0,16.0,57,0.00,,---,0.00,0.00,VWS V14.01,2013-01-21 01:15:00,
2013-01-20 19:17:00,26.3,13.1,30.24,WNW,284,11.0,16.0,57,0.00,,---,0.00,0.00,VWS V14.01,2013-01-21 01:17:00,
2013-01-20 19:20:00,26.3,13.6,30.24,NNE,32,8.0,16.0,58,0.00,,---,0.00,0.00,VWS V14.01,2013-01-21 01:20:00,
2013-01-20 19:23:00,26.1,13.4,30.24,NNW,337,13.0,15.0,58,0.00,,---,0.00,0.00,VWS V14.01,2013-01-21 01:23:00,
2013-01-20 19:25:00,26.0,13.3,30.24,North,0,11.0,15.0,58,0.00,,---,0.00,0.00,VWS V14.01,2013-01-21 01:25:00,
2013-01-20 19:28:00,26.0,13.3,30.24,North,356,11.0,13.0,58,0.00,,---,0.00,0.00,VWS V14.01,2013-01-21 01:28:00,
2013-01-20 19:30:00,26.0,13.3,30.25,ESE,117,11.0,13.0,58,0.00,,---,0.00,0.00,VWS V14.01,2013-01-21 01:30:00,
2013-01-20 19:33:00,25.8,13.1,30.25,NNE,21,11.0,14.0,58,0.00,,---,0.00,0.00,VWS V14.01,2013-01-21 01:33:00,
2013-01-20 19:35:00,25.7,13.0,30.25,NNW,330,7.0,17.0,58,0.00,,---,0.00,0.00,VWS V14.01,2013-01-21 01:35:00,
2013-01-20 19:38:00,25.6,13.3,30.25,SW,232,7.0,11.0,59,0.00,,---,0.00,0.00,VWS V14.01,2013-01-21 01:38:00,
2013-01-20 19:40:00,25.6,13.3,30.25,SSW,205,8.0,11.0,59,0.00,,---,0.00,0.00,VWS V14.01,2013-01-21 01:40:00,
2013-01-20 19:43:00,25.4,13.1,30.25,East,93,11.0,14.0,59,0.00,,---,0.00,0.00,VWS V14.01,2013-01-21 01:43:00,
2013-01-20 19:45:00,25.4,13.1,30.25,North,352,11.0,14.0,59,0.00,,---,0.00,0.00,VWS V14.01,2013-01-21 01:45:00,
2013-01-20 19:48:00,25.4,12.7,30.25,North,0,8.0,15.0,58,0.00,,---,0.00,0.00,VWS V14.01,2013-01-21 01:48:00,
2013-01-20 19:50:00,25.3,13.0,30.25,West,274,10.0,15.0,59,0.00,,---,0.00,0.00,VWS V14.01,2013-01-21 01:50:00,
2013-01-20 19:54:00,25.3,12.6,30.25,East,90,11.0,13.0,58,0.00,,---,0.00,0.00,VWS V14.01,2013-01-21 01:54:00,
2013-01-20 19:55:00,25.3,12.6,30.25,SSW,210,12.0,13.0,58,0.00,,---,0.00,0.00,VWS V14.01,2013-01-21 01:55:00,
2013-01-20 19:59:00,25.1,12.4,30.25,NE,42,11.0,16.0,58,0.00,,---,0.00,0.00,VWS V14.01,2013-01-21 01:59:00,
2013-01-20 20:00:00,25.1,12.4,30.25,NW,306,8.0,16.0,58,0.00,,---,0.00,0.00,VWS V14.01,2013-01-21 02:00:00,
2013-01-20 20:04:00,25.0,12.3,30.25,North,0,7.0,13.0,58,0.00,,---,0.00,0.00,VWS V14.01,2013-01-21 02:04:00,
2013-01-20 20:05:00,25.0,12.3,30.25,North,357,8.0,13.0,58,0.00,,---,0.00,0.00,VWS V14.01,2013-01-21 02:05:00,
2013-01-20 20:09:00,25.0,12.3,30.25,WNW,302,6.0,11.0,58,0.00,,---,0.00,0.00,VWS V14.01,2013-01-21 02:09:00,
2013-01-20 20:10:00,25.0,12.3,30.25,North,0,8.0,11.0,58,0.00,,---,0.00,0.00,VWS V14.01,2013-01-21 02:10:00,
2013-01-20 20:14:00,24.8,12.1,30.24,North,0,8.0,10.0,58,0.00,,---,0.00,0.00,VWS V14.01,2013-01-21 02:14:00,
2013-01-20 20:15:00,24.8,12.1,30.24,North,353,8.0,10.0,58,0.00,,---,0.00,0.00,VWS V14.01,2013-01-21 02:15:00,
2013-01-20 20:19:00,24.7,12.4,30.24,SSE,160,7.0,9.0,59,0.00,,---,0.00,0.00,VWS V14.01,2013-01-21 02:19:00,
2013-01-20 20:20:00,24.7,12.4,30.24,SSE,160,7.0,9.0,59,0.00,,---,0.00,0.00,VWS V14.01,2013-01-21 02:20:00,
2013-01-20 20:24:00,24.7,12.4,30.24,SSE,165,8.0,12.0,59,0.00,,---,0.00,0.00,VWS V14.01,2013-01-21 02:24:00,
2013-01-20 20:25:00,24.7,12.4,30.24,SSE,165,8.0,12.0,59,0.00,,---,0.00,0.00,VWS V14.01,2013-01-21 02:25:00,
2013-01-20 20:29:00,24.5,12.2,30.25,North,0,10.0,10.0,59,0.00,,---,0.00,0.00,VWS V14.01,2013-01-21 02:29:00,
2013-01-20 20:30:00,24.5,12.2,30.25,North,0,10.0,10.0,59,0.00,,---,0.00,0.00,VWS V14.01,2013-01-21 02:30:00,
2013-01-20 20:34:00,24.4,12.5,30.25,NE,54,10.0,11.0,60,0.00,,---,0.00,0.00,VWS V14.01,2013-01-21 02:34:00,
2013-01-20 20:35:00,24.4,12.5,30.25,NE,54,10.0,11.0,60,0.00,,---,0.00,0.00,VWS V14.01,2013-01-21 02:35:00,
2013-01-20 20:39:00,24.2,12.3,30.25,North,0,7.0,11.0,60,0.00,,---,0.00,0.00,VWS V14.01,2013-01-21 02:39:00,
2013-01-20 20:40:00,24.2,12.3,30.25,North,0,7.0,11.0,60,0.00,,---,0.00,0.00,VWS V14.01,2013-01-21 02:40:00,
2013-01-20 20:44:00,24.1,12.6,30.26,South,176,7.0,12.0,61,0.00,,---,0.00,0.00,VWS V14.01,2013-01-21 02:44:00,
2013-01-20 20:45:00,24.1,12.6,30.26,South,176,7.0,12.0,61,0.00,,---,0.00,0.00,VWS V14.01,2013-01-21 02:45:00,
2013-01-20 20:49:00,23.9,12.4,30.26,WNW,294,7.0,10.0,61,0.00,,---,0.00,0.00,VWS V14.01,2013-01-21 02:49:00,
2013-01-20 20:50:00,23.9,12.4,30.26,WNW,294,7.0,10.0,61,0.00,,---,0.00,0.00,VWS V14.01,2013-01-21 02:50:00,
2013-01-20 20:54:00,23.8,12.3,30.26,ESE,109,8.0,8.0,61,0.00,,---,0.00,0.00,VWS V14.01,2013-01-21 02:54:00,
2013-01-20 20:55:00,23.8,12.3,30.26,North,0,8.0,10.0,61,0.00,,---,0.00,0.00,VWS V14.01,2013-01-21 02:55:00,
2013-01-20 20:59:00,23.6,12.5,30.26,NNW,343,8.0,8.0,62,0.00,,---,0.00,0.00,VWS V14.01,2013-01-21 02:59:00,
2013-01-20 21:00:00,23.8,12.7,30.26,SW,233,7.0,10.0,62,0.00,,---,0.00,0.00,VWS V14.01,2013-01-21 03:00:00,
2013-01-20 21:04:00,23.6,12.5,30.26,SSE,158,5.0,8.0,62,0.00,,---,0.00,0.00,VWS V14.01,2013-01-21 03:04:00,
2013-01-20 21:05:00,23.6,12.5,30.26,WNW,284,7.0,11.0,62,0.00,,---,0.00,0.00,VWS V14.01,2013-01-21 03:05:00,
2013-01-20 21:09:00,23.5,12.4,30.26,North,349,10.0,11.0,62,0.00,,---,0.00,0.00,VWS V14.01,2013-01-21 03:09:00,
2013-01-20 21:10:00,23.5,12.4,30.26,NNW,347,8.0,11.0,62,0.00,,---,0.00,0.00,VWS V14.01,2013-01-21 03:10:00,
2013-01-20 21:15:00,23.3,11.9,30.26,WSW,253,6.0,10.0,61,0.00,,---,0.00,0.00,VWS V14.01,2013-01-21 03:15:00,
2013-01-20 21:20:00,23.2,11.8,30.26,North,0,11.0,11.0,61,0.00,,---,0.00,0.00,VWS V14.01,2013-01-21 03:20:00,
2013-01-20 21:25:00,23.0,11.9,30.26,North,356,8.0,11.0,62,0.00,,---,0.00,0.00,VWS V14.01,2013-01-21 03:25:00,
2013-01-20 21:30:00,22.9,11.8,30.26,South,182,7.0,7.0,62,0.00,,---,0.00,0.00,VWS V14.01,2013-01-21 03:30:00,
2013-01-20 21:35:00,22.9,11.5,30.26,WNW,284,7.0,12.0,61,0.00,,---,0.00,0.00,VWS V14.01,2013-01-21 03:35:00,
2013-01-20 21:40:00,22.7,11.3,30.26,NNW,339,7.0,12.0,61,0.00,,---,0.00,0.00,VWS V14.01,2013-01-21 03:40:00,
2013-01-20 21:45:00,22.5,10.7,30.26,WSW,251,8.0,12.0,60,0.00,,---,0.00,0.00,VWS V14.01,2013-01-21 03:45:00,
2013-01-20 21:50:00,22.4,11.0,30.26,ESE,116,10.0,10.0,61,0.00,,---,0.00,0.00,VWS V14.01,2013-01-21 03:50:00,
2013-01-20 21:55:00,22.2,10.4,30.26,NW,322,8.0,12.0,60,0.00,,---,0.00,0.00,VWS V14.01,2013-01-21 03:55:00,
2013-01-20 22:00:00,22.2,10.4,30.26,ENE,62,10.0,14.0,60,0.00,,---,0.00,0.00,VWS V14.01,2013-01-21 04:00:00,
2013-01-20 22:05:00,22.2,10.8,30.26,North,0,8.0,14.0,61,0.00,,---,0.00,0.00,VWS V14.01,2013-01-21 04:05:00,
2013-01-20 22:06:00,22.1,10.7,30.26,NE,42,8.0,12.0,61,0.00,,---,0.00,0.00,VWS V14.01,2013-01-21 04:06:00,
2013-01-20 22:10:00,22.1,10.7,30.26,North,0,6.0,12.0,61,0.00,,---,0.00,0.00,VWS V14.01,2013-01-21 04:10:00,
2013-01-20 22:11:00,21.9,10.5,30.26,NE,45,10.0,11.0,61,0.00,,---,0.00,0.00,VWS V14.01,2013-01-21 04:11:00,
2013-01-20 22:15:00,21.9,10.5,30.26,NNW,335,7.0,11.0,61,0.00,,---,0.00,0.00,VWS V14.01,2013-01-21 04:15:00,
2013-01-20 22:16:00,21.9,10.5,30.26,NW,315,10.0,11.0,61,0.00,,---,0.00,0.00,VWS V14.01,2013-01-21 04:16:00,
2013-01-20 22:20:00,21.8,10.8,30.26,North,0,11.0,12.0,62,0.00,,---,0.00,0.00,VWS V14.01,2013-01-21 04:20:00,
2013-01-20 22:22:00,21.6,10.6,30.26,North,0,9.0,11.0,62,0.00,,---,0.00,0.00,VWS V14.01,2013-01-21 04:22:00,
2013-01-20 22:25:00,21.6,10.6,30.26,NW,311,7.0,11.0,62,0.00,,---,0.00,0.00,VWS V14.01,2013-01-21 04:25:00,
2013-01-20 22:27:00,21.6,10.6,30.26,North,0,9.0,11.0,62,0.00,,---,0.00,0.00,VWS V14.01,2013-01-21 04:27:00,
2013-01-20 22:30:00,21.6,10.6,30.27,North,0,7.0,11.0,62,0.00,,---,0.00,0.00,VWS V14.01,2013-01-21 04:30:00,
2013-01-20 22:32:00,21.4,10.1,30.27,North,0,8.0,11.0,61,0.00,,---,0.00,0.00,VWS V14.01,2013-01-21 04:32:00,
2013-01-20 22:35:00,21.4,10.1,30.27,North,356,10.0,11.0,61,0.00,,---,0.00,0.00,VWS V14.01,2013-01-21 04:35:00,
2013-01-20 22:37:00,21.3,10.3,30.27,NNW,328,9.0,12.0,62,0.00,,---,0.00,0.00,VWS V14.01,2013-01-21 04:37:00,
2013-01-20 22:40:00,21.3,10.3,30.27,NW,313,9.0,12.0,62,0.00,,---,0.00,0.00,VWS V14.01,2013-01-21 04:40:00,
2013-01-20 22:42:00,21.3,10.3,30.27,North,354,5.0,10.0,62,0.00,,---,0.00,0.00,VWS V14.01,2013-01-21 04:42:00,
2013-01-20 22:45:00,21.1,10.1,30.27,North,357,6.0,10.0,62,0.00,,---,0.00,0.00,VWS V14.01,2013-01-21 04:45:00,
2013-01-20 22:47:00,21.1,10.1,30.27,NNW,342,6.0,7.0,62,0.00,,---,0.00,0.00,VWS V14.01,2013-01-21 04:47:00,
2013-01-20 22:50:00,21.1,10.1,30.27,North,0,7.0,7.0,62,0.00,,---,0.00,0.00,VWS V14.01,2013-01-21 04:50:00,
2013-01-20 22:53:00,21.0,10.0,30.27,North,359,4.0,8.0,62,0.00,,---,0.00,0.00,VWS V14.01,2013-01-21 04:53:00,
2013-01-20 22:55:00,21.0,10.0,30.27,North,0,5.0,8.0,62,0.00,,---,0.00,0.00,VWS V14.01,2013-01-21 04:55:00,
2013-01-20 22:58:00,20.8,9.9,30.27,North,0,6.0,7.0,62,0.00,,---,0.00,0.00,VWS V14.01,2013-01-21 04:58:00,
2013-01-20 23:00:00,20.8,9.9,30.28,North,354,7.0,7.0,62,0.00,,---,0.00,0.00,VWS V14.01,2013-01-21 05:00:00,
2013-01-20 23:02:00,20.8,9.9,30.28,NW,326,5.0,7.0,62,0.00,,---,0.00,0.00,VWS V14.01,2013-01-21 05:02:00,
2013-01-20 23:03:00,20.8,9.9,30.28,North,0,6.0,7.0,62,0.00,,---,0.00,0.00,VWS V14.01,2013-01-21 05:03:00,
2013-01-20 23:05:00,20.8,9.9,30.28,NW,309,4.0,7.0,62,0.00,,---,0.00,0.00,VWS V14.01,2013-01-21 05:05:00,
2013-01-20 23:08:00,20.6,10.0,30.28,North,353,3.0,5.0,63,0.00,,---,0.00,0.00,VWS V14.01,2013-01-21 05:08:00,
2013-01-20 23:10:00,20.5,9.9,30.28,North,359,2.0,5.0,63,0.00,,---,0.00,0.00,VWS V14.01,2013-01-21 05:10:00,
2013-01-20 23:13:00,20.5,9.9,30.28,North,0,1.0,3.0,63,0.00,,---,0.00,0.00,VWS V14.01,2013-01-21 05:13:00,
2013-01-20 23:15:00,20.5,9.9,30.27,North,0,3.0,3.0,63,0.00,,---,0.00,0.00,VWS V14.01,2013-01-21 05:15:00,
2013-01-20 23:18:00,20.3,9.7,30.27,North,0,1.0,3.0,63,0.00,,---,0.00,0.00,VWS V14.01,2013-01-21 05:18:00,
2013-01-20 23:20:00,20.3,9.7,30.27,NW,309,2.0,3.0,63,0.00,,---,0.00,0.00,VWS V14.01,2013-01-21 05:20:00,
2013-01-20 23:23:00,20.0,9.8,30.27,NW,305,3.0,4.0,64,0.00,,---,0.00,0.00,VWS V14.01,2013-01-21 05:23:00,
2013-01-20 23:25:00,20.0,9.8,30.27,NW,326,4.0,4.0,64,0.00,,---,0.00,0.00,VWS V14.01,2013-01-21 05:25:00,
2013-01-20 23:28:00,19.9,9.7,30.27,North,359,2.0,5.0,64,0.00,,---,0.00,0.00,VWS V14.01,2013-01-21 05:28:00,
2013-01-20 23:30:00,19.9,9.7,30.27,North,0,3.0,5.0,64,0.00,,---,0.00,0.00,VWS V14.01,2013-01-21 05:30:00,
2013-01-20 23:33:00,19.7,9.5,30.27,NNE,17,3.0,5.0,64,0.00,,---,0.00,0.00,VWS V14.01,2013-01-21 05:33:00,
2013-01-20 23:35:00,19.7,9.5,30.27,North,0,3.0,5.0,64,0.00,,---,0.00,0.00,VWS V14.01,2013-01-21 05:35:00,
2013-01-20 23:38:00,19.4,9.2,30.27,North,0,3.0,5.0,64,0.00,,---,0.00,0.00,VWS V14.01,2013-01-21 05:38:00,
2013-01-20 23:40:00,19.4,9.2,30.27,North,353,2.0,5.0,64,0.00,,---,0.00,0.00,VWS V14.01,2013-01-21 05:40:00,
2013-01-20 23:44:00,19.2,9.0,30.29,North,0,3.0,5.0,64,0.00,,---,0.00,0.00,VWS V14.01,2013-01-21 05:44:00,
2013-01-20 23:45:00,19.2,9.0,30.29,North,350,5.0,5.0,64,0.00,,---,0.00,0.00,VWS V14.01,2013-01-21 05:45:00,
2013-01-20 23:49:00,19.1,8.9,30.29,NW,313,4.0,6.0,64,0.00,,---,0.00,0.00,VWS V14.01,2013-01-21 05:49:00,
2013-01-20 23:50:00,19.1,8.9,30.29,NNW,333,3.0,6.0,64,0.00,,---,0.00,0.00,VWS V14.01,2013-01-21 05:50:00,
2013-01-20 23:54:00,18.8,8.6,30.29,WSW,256,3.0,4.0,64,0.00,,---,0.00,0.00,VWS V14.01,2013-01-21 05:54:00,
2013-01-20 23:55:00,18.8,8.6,30.29,NNW,344,3.0,4.0,64,0.00,,---,0.00,0.00,VWS V14.01,2013-01-21 05:55:00,
2013-01-20 23:59:00,18.6,8.8,30.29,North,349,3.0,7.0,65,0.00,,---,0.00,0.00,VWS V14.01,2013-01-21 05:59:00,